Weather History for KJEF - October, 2012

Change the Weather History Date:

Thursday, October 11, 2012

  Actual Average Record
Temperature  
Mean Temperature 49 °F -  
Max Temperature 63 °F 69 °F 97 °F (2001)
Min Temperature 35 °F 42 °F 22 °F (1987)
Degree Days  
Heating Degree Days 16    
Moisture  
Dew Point 39 °F    
Average Humidity 68    
Maximum Humidity 85    
Minimum Humidity 47    
Precipitation  
Precipitation 0.00 in - - ()
Sea Level Pressure  
Sea Level Pressure 30.16 in    
Wind  
Wind Speed 4 mph (SE)    
Max Wind Speed 9 mph    
Max Gust Speed -    
Visibility 10 miles    
Events      
Averages and records for this station are not official NWS values.
T = Trace of Precipitation, MM = Missing Value Source: NWS Daily Summary

Daily Weather History Graph

Daily Weather History Graph

Search for Another Location

Airport or City:

Trip Planner

Search our weather history database for the weather conditions in past years. The results will help you decide how hot, cold, wet, or windy it might be!

Date:

Astronomy

Oct. 11, 2012 Rise Set
Actual Time 7:14 AM CDT 6:35 PM CDT
Civil Twilight 6:47 AM CDT 7:02 PM CDT
Nautical Twilight 6:16 AM CDT 7:32 PM CDT
Astronomical Twilight 5:46 AM CDT 8:03 PM CDT
Moon 2:56 AM CDT (10/11) 4:09 PM CDT (10/11)
Length of Visible Light 12h 14m
Length of Day
11h 21m
Waning Crescent, 18% of the Moon is Illuminated
Oct 11
Waning Crescent
Oct 15
New
Oct 21
First Quarter
Oct 29
Full
Nov 6
Last Quarter

Hourly Weather History & Observations

Time (CDT) Temp. Windchill Dew Point Humidity Pressure Visibility Wind Dir Wind Speed Gust Speed Precip Events Conditions
12:53 AM 37.0 °F 34.5 °F 30.9 °F 79% 30.18 in 10.0 mi SE 3.5 mph - N/A   Clear
1:53 AM 37.0 °F - 32.0 °F 82% 30.19 in 10.0 mi Calm Calm - N/A   Clear
2:53 AM 37.0 °F 33.3 °F 30.9 °F 79% 30.19 in 10.0 mi SE 4.6 mph - N/A   Clear
3:53 AM 35.1 °F - 30.9 °F 85% 30.18 in 10.0 mi Calm Calm - N/A   Clear
4:53 AM 36.0 °F - 30.9 °F 82% 30.18 in 10.0 mi Calm Calm - N/A   Clear
5:53 AM 36.0 °F 32.1 °F 30.9 °F 82% 30.17 in 10.0 mi ESE 4.6 mph - N/A   Clear
6:53 AM 36.0 °F 32.1 °F 30.9 °F 82% 30.17 in 10.0 mi ESE 4.6 mph - N/A   Clear
7:53 AM 39.9 °F 36.7 °F 33.1 °F 77% 30.17 in 10.0 mi ESE 4.6 mph - N/A   Scattered Clouds
8:53 AM 46.9 °F - 34.0 °F 61% 30.18 in 10.0 mi ESE 4.6 mph - N/A   Overcast
9:53 AM 52.0 °F - 35.1 °F 53% 30.19 in 10.0 mi Variable 3.5 mph - N/A   Overcast
10:53 AM 55.9 °F - 36.0 °F 47% 30.19 in 10.0 mi SE 4.6 mph - N/A   Overcast
11:53 AM 57.0 °F - 37.0 °F 47% 30.17 in 10.0 mi South 5.8 mph - N/A   Overcast
12:53 PM 59.0 °F - 39.9 °F 49% 30.15 in 10.0 mi SE 9.2 mph - N/A   Overcast
1:05 PM 59.0 °F - 39.2 °F 48% 30.16 in 10.0 mi SE 8.1 mph - N/A   Overcast
1:53 PM 60.1 °F - 42.1 °F 51% 30.12 in 10.0 mi SE 9.2 mph - N/A   Overcast
3:48 PM 62.6 °F - 44.6 °F 52% 30.12 in 10.0 mi SSE 8.1 mph - N/A   Overcast
3:53 PM 63.0 °F - 45.0 °F 52% 30.09 in 10.0 mi SSE 8.1 mph - N/A   Overcast
6:53 PM 61.0 °F - 46.9 °F 60% 30.10 in 10.0 mi South 4.6 mph - N/A   Overcast
7:53 PM 60.1 °F - 46.9 °F 62% 30.13 in 10.0 mi South 3.5 mph - N/A   Overcast
8:53 PM 55.9 °F - 51.1 °F 84% 30.15 in 6.0 mi Calm Calm - 0.00 in   Haze
9:53 PM 55.9 °F - 51.1 °F 84% 30.15 in 10.0 mi Calm Calm - N/A   Overcast
10:53 PM 55.9 °F - 51.1 °F 84% 30.17 in 10.0 mi Calm Calm - N/A   Overcast
11:53 PM 55.9 °F - 51.1 °F 84% 30.17 in 10.0 mi Calm Calm - N/A   Overcast